This is the latest recevied weather packets stored in our database for station/object KT5AL. If no packets are shown the sender has not sent any weather packets the latest 10 day(s).
| Time | Temp. | Humidity | Pressure | Rain* | Wind** | Luminosity | Snow |
|---|---|---|---|---|---|---|---|
| 1777912504 | 22.78° C | 63% | 1010.7 hPa | 0 mm | - | - | - |
| 1777912233 | 22.22° C | 63% | 1010.7 hPa | 0 mm | - | - | - |
| 1777911909 | 22.22° C | 63% | 1011 hPa | 0 mm | - | - | - |
| 1777911605 | 22.22° C | 63% | 1011 hPa | 0 mm | - | - | - |
| 1777911308 | 22.22° C | 62% | 1011 hPa | 0 mm | - | - | - |
| 1777911005 | 22.22° C | 63% | 1011 hPa | 0 mm | - | - | - |
| 1777910708 | 22.22° C | 61% | 1011 hPa | 0 mm | - | - | - |
| 1777910404 | 22.22° C | 61% | 1011 hPa | 0 mm | - | - | - |
| 1777910107 | 21.67° C | 62% | 1011 hPa | 0 mm | - | - | - |
| 1777909804 | 22.22° C | 62% | 1011 hPa | 0 mm | - | - | - |
| 1777909507 | 21.67° C | 63% | 1011 hPa | 0 mm | - | - | - |
| 1777909204 | 21.67° C | 62% | 1011 hPa | 0 mm | - | - | - |
| 1777908907 | 21.67° C | 61% | 1011 hPa | 0 mm | - | - | - |
| 1777908604 | 21.67° C | 62% | 1011 hPa | 0 mm | - | - | - |
| 1777908307 | 21.67° C | 65% | 1011.4 hPa | 0 mm | - | - | - |
| 1777908004 | 21.11° C | 65% | 1011.4 hPa | 0 mm | - | - | - |
| 1777907707 | 21.11° C | 65% | 1011.7 hPa | 0 mm | - | - | - |
| 1777907404 | 21.11° C | 67% | 1011.7 hPa | 0 mm | - | - | - |
| 1777907107 | 21.11° C | 66% | 1011.7 hPa | 0 mm | - | - | - |
| 1777906805 | 21.11° C | 68% | 1011.7 hPa | 0 mm | - | - | - |
| 1777906508 | 21.11° C | 67% | 1011.7 hPa | 0 mm | - | - | - |
| 1777906205 | 20.56° C | 68% | 1011.7 hPa | 0 mm | - | - | - |
| 1777905908 | 20.56° C | 69% | 1012.1 hPa | 0 mm | - | - | - |
| 1777905606 | 20° C | 70% | 1012.1 hPa | 0 mm | - | - | - |
| 1777905311 | 20° C | 71% | 1012.4 hPa | 0 mm | - | - | - |
* Rain latest hour (hover to see other rain measurements)
** Current wind speed in m/s (hover to see current wind gust speed)